Overview Statistics Trail Chart Weather Telemetry Raw packets
 

This is the latest recevied weather packets stored in our database for station/object KC9DRE. If no packets are shown the sender has not sent any weather packets the latest 10 day(s).

<< 93 94 95 96 97 98 99 >>
Time Temp. Humidity Pressure Rain* Wind** Luminosity Snow
1777197026 14.44° C 92% 1014.8 hPa 0 mm - 0 W/m² -
1777196722 14.44° C 92% 1014.9 hPa 0 mm - 0 W/m² -
1777196420 14.44° C 92% 1014.7 hPa 0 mm - 0 W/m² -
1777196116 13.89° C 93% 1014.9 hPa 0 mm - 0 W/m² -
1777195813 13.89° C 93% 1014.9 hPa 0 mm - 0 W/m² -
1777195507 13.89° C 94% 1014.8 hPa 0 mm - 0 W/m² -
1777195203 13.89° C 95% 1014.7 hPa 0 mm - 0 W/m² -
1777194899 13.89° C 96% 1014.7 hPa 0 mm - 0 W/m² -
1777194594 13.89° C 97% 1014.6 hPa 0 mm - 0 W/m² -
1777194292 13.89° C 97% 1014.9 hPa 0 mm - 0 W/m² -
1777193989 13.89° C 98% 1014.9 hPa 0 mm - 0 W/m² -
1777193688 13.33° C 98% 1014.6 hPa 0 mm - 0 W/m² -
1777193387 13.33° C 98% 1014.8 hPa 0 mm - 0 W/m² -
1777193083 13.33° C 98% 1014.5 hPa 0 mm - 0 W/m² -
1777192778 13.33° C 98% 1014.7 hPa 0 mm - 0 W/m² -
1777192475 12.78° C 98% 1014.6 hPa 0 mm - 0 W/m² -
1777192170 13.33° C 98% 1014.7 hPa 0 mm - 0 W/m² -
1777191868 13.33° C 98% 1014.6 hPa 0 mm - 0 W/m² -
1777191565 12.78° C 99% 1014.5 hPa 0 mm - 0 W/m² -
1777191260 12.78° C 99% 1014.4 hPa 0 mm - 0 W/m² -
1777190958 11.67° C 99% 1014.5 hPa 0 mm - 0 W/m² -
1777190655 11.11° C 98% 1014.4 hPa 0 mm - 0 W/m² -
1777190350 10.56° C 98% 1014.5 hPa 0 mm - 0 W/m² -
1777190046 10° C 98% 1014.4 hPa 0 mm - 0 W/m² -
1777189743 10° C 98% 1014.3 hPa 0 mm - 0 W/m² -

* Rain latest hour (hover to see other rain measurements)
** Current wind speed in m/s (hover to see current wind gust speed)